Location: Northcutt
(34.7304°N, 84.4305°W)
Time: 14:24:09
(UTC+00:00)

Hubble Space Telescope - Pass Details

Date: 09 August 2022
Orbit: 531 x 535 km, 28.5° (Epoch: 27 September)

Event Time Altitude Azimuth Distance (km) Brightness Sun altitude
Rises 01:50:24 0° 250° (WSW) 2,667 4.9 -15.1°
Reaches altitude 10° 01:52:48 10° 241° (WSW) 1,777 3.8 -15.5°
Maximum altitude 01:56:31 33° 176° (S) 906 1.6 -16.1°
Enters shadow 01:57:23 30° 150° (SSE) 973 1.6 -16.3°
